Probability
0 0 1 1 1 0 0 0 0 0 0 0 0 1 3 7 12 17 23 38 55 60 58 59 59 49 32 18 11 8 7 7 4 1 0 0 0 0 0 0 0 0 0 0 0 0 0 0 0
0 0 0 1 0 0 0 0 0 0 0 0 1 2 6 11 15 17 26 42 54 58 56 56 60 53 37 21 12 8 7 6 4 2 1 0 0 0 0 0 0 0 0 0 0 0 0 0 0
0 0 0 1 0 0 0 0 0 0 0 1 2 5 11 18 19 21 31 44 53 55 54 57 63 58 43 28 18 11 8 5 4 3 1 0 0 0 0 0 0 0 0 0 0 0 0 0 0
0 0 0 0 0 0 0 0 0 0 0 1 3 8 16 22 25 27 34 43 49 52 55 62 66 60 47 35 26 16 9 5 4 3 1 0 0 0 0 0 0 0 0 0 0 0 0 0 0
1 1 1 0 0 0 0 0 0 0 0 0 3 10 18 25 29 33 38 42 47 53 59 65 67 62 50 41 34 23 12 6 5 3 1 0 0 0 1 1 1 0 0 0 0 0 0 0 0
1 2 2 0 0 0 0 0 0 0 0 1 3 9 17 24 32 40 46 48 50 55 62 66 65 62 54 46 40 32 20 12 9 5 2 1 1 1 2 2 1 0 0 0 0 0 0 0 0
1 1 1 0 0 0 0 0 0 0 1 2 4 8 13 20 31 45 54 57 56 56 61 62 58 56 53 47 42 37 27 17 11 7 4 3 2 2 3 2 1 0 0 0 0 0 0 0 0
0 0 0 0 0 0 0 0 0 0 1 3 5 7 10 15 28 44 55 59 59 56 56 56 50 46 44 39 36 33 26 17 10 5 3 2 1 2 2 1 0 0 0 0 0 0 0 0 0
0 0 0 0 0 0 0 0 0 0 0 2 4 7 10 15 25 39 47 52 54 51 49 49 46 39 32 26 25 24 19 12 6 3 1 1 0 1 1 0 0 0 0 0 0 0 0 0 0
0 0 0 0 0 0 0 0 0 0 0 0 2 6 11 16 22 29 34 38 40 38 38 40 40 34 24 19 17 15 11 7 3 1 0 0 0 0 0 0 0 0 0 0 0 0 0 0 0
0 0 0 0 0 0 0 0 0 0 0 0 1 5 10 14 17 19 21 24 26 26 27 30 31 27 20 16 15 11 8 5 3 1 0 0 0 0 0 0 0 0 0 0 0 0 0 0 0
0 0 0 0 0 0 0 0 0 0 0 0 2 5 7 9 13 15 15 18 20 20 19 21 22 21 16 14 13 10 7 5 3 2 0 0 0 0 0 0 0 0 0 0 0 0 0 0 0
0 0 0 0 0 0 0 0 0 0 0 0 2 4 5 6 10 12 13 15 17 16 15 15 16 16 15 12 11 10 7 4 3 1 0 0 0 0 0 0 0 0 0 0 0 0 0 0 0
0 0 0 0 0 0 0 0 0 0 0 0 1 3 4 5 7 8 10 12 12 11 12 14 13 12 12 12 11 11 8 5 3 1 0 0 0 0 0 0 0 0 0 0 0 0 0 0 0
0 0 0 0 0 0 0 0 0 0 0 0 0 1 1 3 5 5 8 9 9 9 10 12 11 9 8 9 9 9 7 6 4 2 1 0 0 0 0 0 0 0 0 0 0 0 0 0 0
0 0 0 0 0 0 0 0 0 0 0 0 0 0 0 1 3 4 6 7 6 6 6 7 9 8 7 8 7 4 4 5 5 4 2 1 1 1 0 0 0 0 0 0 0 0 0 0 0
0 0 0 0 0 0 0 0 0 0 0 0 0 1 0 0 2 3 4 3 3 2 2 4 6 7 7 8 6 3 2 5 7 7 5 3 2 2 1 1 0 0 0 0 0 0 0 0 0
0 0 0 0 0 0 0 0 0 0 0 0 0 1 1 1 1 2 2 1 1 0 1 2 4 5 5 6 6 5 4 6 8 9 8 5 4 3 3 2 1 1 1 1 1 0 0 0 0
0 0 0 0 0 0 0 0 0 0 0 0 0 0 1 1 1 1 1 0 1 1 0 1 3 3 3 4 5 6 6 7 7 8 8 7 5 3 3 3 3 2 2 2 2 1 1 1 1
0 0 0 0 0 0 0 0 0 0 0 0 0 0 0 0 0 0 0 0 1 1 0 1 2 3 3 3 3 4 5 6 7 8 9 9 7 4 4 4 4 4 4 4 3 3 3 3 2
0 0 0 0 0 0 0 0 0 0 0 0 0 0 0 0 0 0 0 0 1 1 0 1 2 2 1 1 2 2 2 3 7 9 9 10 8 6 5 4 4 5 5 5 5 5 5 4 4
0 0 0 0 0 0 0 0 0 0 0 0 0 0 0 0 0 0 0 0 0 0 1 1 1 1 0 0 0 0 1 3 6 7 8 9 8 7 5 4 4 5 5 6 6 6 6 5 5
0 0 0 0 0 0 0 0 0 0 0 0 0 0 0 0 0 0 0 0 0 1 2 2 1 0 0 0 0 0 0 2 4 6 7 7 6 5 4 4 4 4 4 5 6 6 6 5 5
0 0 0 0 0 0 0 0 0 0 0 0 0 0 0 0 0 0 0 0 0 2 3 2 1 0 0 0 0 0 0 1 2 5 7 6 4 4 4 3 3 3 3 4 4 5 5 4 4
0 0 0 0 0 0 0 0 0 0 0 0 0 0 0 0 0 0 0 0 0 1 2 2 1 0 0 0 0 0 0 0 0 2 5 5 4 4 4 2 2 2 3 3 4 4 4 4 3
0 0 0 0 0 0 0 0 0 0 0 0 0 0 0 0 0 0 0 0 0 0 1 1 0 0 0 0 0 0 0 0 0 1 2 2 3 3 3 2 1 2 2 3 3 4 4 3 3
0 0 0 0 0 0 0 0 0 0 0 0 0 0 0 0 0 0 0 0 0 0 0 0 0 0 0 0 0 0 0 0 0 0 1 1 1 1 2 2 2 2 1 2 3 3 3 3 3
0 0 0 0 0 0 0 0 0 0 0 0 0 0 0 0 0 0 0 0 0 0 0 0 0 0 0 0 0 0 0 0 0 0 1 1 0 0 1 1 2 1 0 1 2 3 3 3 3
0 0 0 0 0 0 0 0 0 0 0 0 0 0 0 0 0 0 0 0 0 0 0 0 0 0 0 0 0 0 0 0 0 0 0 0 0 0 0 0 0 0 0 0 1 2 3 3 3
0 0 0 0 0 0 0 0 0 0 0 0 0 0 0 0 0 0 0 0 0 0 0 0 0 0 0 0 0 0 0 0 0 0 0 0 0 0 0 0 0 0 0 0 0 1 3 3 3
Wind_Speed
10 9 6 2 4 8 19 16 12 12 11 8 6 6 5 4 2 3 4 7 12 16 17 18 17 17 16 14 13 12 12 13 13 14 15 15 15 16 16 15 16 15 15 15 15 15 14 14 13
9 7 3 3 8 14 15 14 17 15 11 8 6 6 5 2 4 6 4 8 12 15 16 15 17 17 16 15 13 13 13 13 13 14 15 16 16 16 16 16 16 15 15 15 14 14 13 13 12
10 7 3 5 12 18 13 8 10 11 10 8 7 5 3 1 2 5 6 9 11 14 14 16 17 17 16 15 14 13 13 13 13 13 14 15 16 16 16 16 15 15 15 14 14 13 12 12 11
4 3 4 9 19 18 16 13 9 8 8 7 5 4 1 1 2 5 9 9 11 12 13 16 17 17 15 15 14 14 14 14 14 14 14 15 16 16 16 15 15 14 14 14 13 12 11 11 10
2 3 8 14 20 17 14 12 11 10 9 8 5 5 4 1 5 7 8 9 10 11 12 15 17 17 16 15 14 14 14 14 14 14 15 16 16 16 16 15 15 14 14 13 12 12 11 10 8
3 4 9 15 18 17 15 12 12 10 10 9 7 7 6 1 4 6 7 7 9 11 12 14 16 16 16 15 14 13 14 13 14 15 15 16 16 16 16 16 15 14 13 12 11 11 10 9 7
4 6 12 15 16 15 13 11 11 9 11 9 7 7 6 1 2 4 5 6 7 10 11 11 11 12 13 14 13 12 13 12 13 13 14 14 14 15 15 15 14 13 12 11 10 10 9 7 6
3 4 11 13 16 15 12 11 8 9 10 8 7 7 5 2 1 2 3 4 6 8 10 11 11 10 9 9 12 12 12 12 12 13 13 13 13 13 14 13 12 12 11 10 9 9 8 6 5
3 6 10 12 13 11 10 10 9 9 9 8 8 7 4 2 1 1 2 3 5 7 7 9 10 10 9 9 10 11 11 12 13 11 14 12 9 9 9 11 11 11 10 10 9 8 7 5 4
6 8 13 11 12 11 10 10 9 8 10 9 8 6 3 2 2 4 5 5 7 7 8 7 8 9 9 9 8 7 8 8 8 8 9 7 7 7 9 12 11 10 9 9 8 8 7 5 3
7 9 12 13 13 11 10 9 10 10 12 9 8 6 4 4 4 5 7 6 6 7 7 7 7 7 8 6 7 5 5 6 7 10 9 7 6 6 7 5 6 6 7 5 5 5 4 5 4
10 12 14 13 11 10 10 9 10 12 12 10 9 7 5 5 5 5 4 6 6 6 6 7 7 7 7 6 6 6 5 5 5 8 9 6 5 5 6 5 5 5 4 4 4 4 5 5 4
11 13 14 11 10 10 11 12 11 13 12 10 10 9 7 6 5 4 3 4 6 7 7 6 7 7 7 6 5 6 5 5 6 6 6 6 5 6 6 5 5 5 4 4 4 4 4 4 3
8 10 11 11 11 11 13 13 12 14 11 11 11 10 9 8 7 5 4 5 6 7 6 6 7 7 6 6 5 5 5 5 5 5 6 7 6 5 5 5 5 4 4 4 4 4 3 2 2
9 11 11 11 12 11 10 13 14 12 11 12 12 11 10 8 7 6 5 4 5 7 6 5 5 7 7 6 6 5 5 5 5 5 6 7 6 6 5 4 4 3 4 4 3 2 2 2 1
7 7 7 7 9 8 7 12 9 8 11 12 11 9 8 7 7 6 5 4 4 5 6 5 5 5 6 6 5 4 4 5 5 5 5 7 7 7 5 4 4 4 3 3 2 2 1 1 1
5 5 8 7 5 4 6 9 8 7 9 10 10 9 8 7 7 5 5 5 5 5 6 6 5 5 6 6 5 5 4 4 4 5 5 6 7 7 5 4 4 4 3 3 2 2 2 2 1
4 5 7 7 4 6 8 10 8 9 9 9 8 8 7 8 7 6 5 5 5 6 6 6 5 6 6 5 4 3 4 4 4 4 4 5 6 7 5 4 5 5 3 3 2 3 2 2 2
9 9 10 9 7 7 9 10 10 9 7 7 6 5 6 6 6 6 5 5 5 5 6 6 5 6 6 4 4 5 5 5 4 4 5 6 6 6 5 5 5 4 4 4 4 3 3 2 1
9 9 9 9 6 6 7 9 9 7 5 5 5 5 5 5 5 6 6 5 5 5 5 5 5 6 6 5 4 3 4 4 4 4 5 6 6 6 5 6 5 4 4 4 4 4 3 2 2
8 8 7 8 7 6 6 6 5 3 2 2 3 4 4 6 7 7 6 5 5 5 5 5 5 5 6 5 4 3 3 3 3 3 3 4 5 5 5 5 5 5 4 4 4 4 5 3 3
6 5 6 6 4 3 2 3 3 1 0 0 2 3 4 5 5 5 5 5 4 4 4 4 4 4 4 5 5 7 6 5 4 4 3 4 5 5 5 5 5 5 4 4 4 4 4 4 3
4 5 6 7 4 4 3 1 3 3 3 2 2 2 2 3 4 4 4 4 3 3 3 3 4 4 4 5 5 5 5 5 4 4 4 4 4 4 4 4 4 5 4 4 4 4 4 3 4
5 5 7 5 2 1 1 2 3 4 5 3 3 3 3 4 5 5 5 4 4 3 2 3 4 3 4 4 4 4 6 6 6 6 5 4 3 3 4 4 4 4 4 5 4 4 4 4 4
3 3 2 1 1 0 3 4 3 6 8 7 6 5 5 5 6 6 5 5 4 3 3 4 4 3 3 3 2 4 5 5 6 6 5 5 4 3 5 4 4 4 4 4 4 4 4 4 4
3 2 2 2 1 1 3 4 3 5 6 7 7 7 7 7 7 7 6 5 4 4 4 4 4 4 3 2 2 2 3 2 3 4 4 4 4 4 5 5 4 4 4 4 4 3 3 3 4
3 2 3 2 1 1 3 3 3 5 7 7 8 9 8 8 8 7 6 6 5 5 5 4 4 4 4 3 2 2 2 1 2 3 3 4 4 4 5 5 5 4 5 5 5 3 3 3 3
2 4 3 2 2 2 4 4 3 5 6 7 8 8 8 8 8 7 6 6 6 6 5 5 6 5 3 3 2 2 2 1 1 2 3 3 4 4 5 5 5 5 5 5 5 4 4 4 3
2 3 3 2 2 2 3 4 4 4 6 7 8 8 8 8 8 7 7 6 6 6 6 6 6 5 5 4 3 3 2 2 1 1 2 3 3 4 5 5 5 6 6 6 5 5 6 6 5
2 4 4 3 4 3 4 3 4 5 6 7 8 8 8 8 7 7 7 7 7 7 7 6 6 6 5 4 3 2 2 2 1 1 0 2 3 4 4 5 5 5 6 6 6 6 6 6 7
Wind_Direction
302 274 261 245 232 231 238 237 249 255 259 267 281 282 282 283 354 112 153 133 126 136 144 153 154 154 153 151 150 151 151 151 151 153 151 149 145 140 137 134 131 125 120 114 108 104 100 98 96
298 283 257 229 227 231 236 232 240 251 266 284 290 289 286 315 83 111 131 122 131 136 143 153 153 154 153 152 152 152 152 152 151 153 152 148 144 141 138 134 129 125 120 115 109 106 103 101 100
279 268 239 229 229 231 236 229 233 243 253 266 275 284 280 354 85 113 124 128 133 138 146 149 154 155 153 152 153 153 152 150 150 151 150 147 144 142 138 132 127 123 119 116 113 110 107 105 103
274 238 237 239 239 237 247 263 279 282 267 257 262 275 318 33 58 108 123 130 134 139 141 147 155 154 153 152 153 153 153 151 150 149 148 146 145 141 135 129 125 123 121 120 118 115 111 108 106
249 241 233 239 245 252 256 259 271 275 278 273 256 258 263 116 106 121 129 139 141 140 138 152 155 154 153 153 153 152 152 151 150 150 149 146 143 139 133 130 127 126 125 124 122 120 116 113 110
228 227 233 241 247 249 251 255 265 264 266 274 272 257 250 117 117 129 141 146 146 138 140 152 156 154 154 153 153 153 152 151 150 149 148 144 142 138 136 134 132 132 131 130 128 125 121 118 115
237 244 247 254 258 258 257 255 252 259 266 267 274 269 260 212 109 135 140 141 141 137 141 148 153 154 154 153 153 152 152 149 147 145 143 140 138 138 139 138 137 137 136 134 133 131 128 125 123
251 264 255 254 260 262 271 275 272 264 264 269 270 254 253 254 108 134 132 136 131 140 145 154 155 153 153 151 152 150 148 146 142 138 134 133 134 137 139 139 139 138 137 137 138 139 136 135 141
243 241 247 250 260 271 286 285 282 290 280 269 262 259 267 313 355 142 159 153 153 150 149 159 159 158 157 156 153 147 144 140 136 133 135 137 141 142 143 141 139 140 141 144 147 148 149 152 173
208 237 247 260 272 285 290 291 291 287 279 273 273 264 245 243 208 198 198 190 174 169 168 162 162 162 161 160 150 152 150 146 148 146 149 157 156 150 143 139 142 144 146 150 159 166 170 180 191
213 240 259 267 278 286 284 284 290 280 270 268 263 258 247 214 210 212 205 198 191 176 174 165 160 162 160 153 156 158 155 160 162 157 169 167 146 136 132 141 142 147 155 160 169 180 202 209 193
241 253 259 265 274 278 278 278 275 266 269 279 277 270 267 242 219 221 212 205 191 176 174 170 162 162 156 159 162 158 159 166 162 164 173 157 142 144 148 153 162 167 174 173 176 199 212 213 191
253 262 267 266 265 267 269 260 262 263 269 272 272 269 256 253 243 223 217 231 195 182 182 177 169 167 162 162 165 164 162 164 162 162 169 151 145 152 155 162 167 175 175 168 184 211 201 202 193
264 277 278 276 270 265 261 257 253 256 257 255 252 252 248 246 235 228 212 225 204 188 182 178 174 170 167 167 165 168 164 163 162 161 167 153 152 156 158 159 167 173 166 167 191 206 185 182 169
279 279 276 263 253 250 255 255 246 254 254 246 241 241 241 237 225 211 200 211 204 184 173 170 180 176 174 177 171 166 165 166 161 163 167 159 158 157 158 156 165 167 161 169 189 197 163 165 159
269 262 260 256 246 242 231 257 256 252 245 239 234 234 234 226 220 211 185 196 207 190 176 171 182 173 177 178 173 163 172 166 163 164 165 165 160 160 160 156 167 161 156 166 174 166 150 153 157
240 240 257 274 256 255 244 262 266 261 247 238 230 225 218 218 214 206 185 196 196 189 178 173 181 168 179 178 174 170 172 168 165 166 165 167 163 163 161 160 165 158 157 164 169 158 150 165 179
268 283 288 287 287 288 272 271 275 267 248 238 232 223 212 207 209 196 186 188 194 188 180 171 182 175 173 171 166 172 172 172 166 166 165 166 165 165 161 162 165 158 155 160 165 167 164 161 167
271 279 282 288 287 280 273 275 276 266 238 229 219 211 210 202 208 187 182 187 187 182 179 169 181 178 169 171 173 174 176 175 173 176 172 173 172 171 165 165 164 159 161 166 167 163 167 171 132
264 271 277 285 290 288 280 280 278 272 254 231 207 199 192 192 198 180 179 194 179 184 180 166 178 171 163 173 174 171 165 172 171 173 175 175 173 172 169 164 161 159 159 167 170 163 155 164 151
263 256 264 276 299 276 270 286 279 277 270 242 190 170 182 192 188 169 170 188 184 183 179 177 172 174 171 174 163 153 151 152 164 175 173 170 166 168 169 168 160 163 168 172 173 167 163 174 181
274 269 276 284 298 281 263 308 317 294 52 268 162 162 186 184 166 154 157 169 175 177 180 178 161 166 169 168 177 172 176 177 177 175 171 167 165 165 165 168 164 166 170 173 175 167 165 165 175
270 293 282 273 272 280 247 227 323 22 48 12 100 119 131 120 128 134 140 149 151 155 169 167 154 156 158 166 181 177 178 177 163 155 161 168 163 160 160 168 168 166 169 180 178 171 173 172 173
272 285 276 254 234 270 261 140 19 9 5 14 65 80 81 98 102 103 102 110 111 116 123 133 134 142 155 162 169 171 172 170 161 161 170 170 163 162 172 179 179 173 173 178 183 175 177 183 176
269 302 314 275 179 358 35 78 44 4 8 23 47 58 59 78 85 82 85 83 85 89 99 108 120 130 140 148 152 167 172 167 168 171 174 171 168 174 181 179 179 178 177 174 171 170 177 181 176
289 296 322 324 1 63 42 57 29 3 18 39 51 60 63 68 75 70 70 71 68 64 81 87 96 105 101 107 118 148 148 155 168 175 177 183 184 185 177 176 176 177 175 172 170 167 175 176 179
315 310 273 290 289 99 77 81 45 22 40 49 55 59 59 65 69 66 63 60 56 53 60 71 76 73 73 66 69 98 102 135 164 176 186 188 185 174 173 178 179 179 177 174 170 172 175 171 176
279 301 313 323 342 75 99 79 14 8 39 53 54 55 58 61 62 58 58 58 54 51 50 58 66 64 61 51 46 67 89 122 140 160 178 184 178 173 176 179 177 178 179 173 172 170 172 173 169
329 324 319 311 330 28 82 51 19 43 49 62 61 59 60 60 62 56 52 52 54 52 52 52 52 51 48 45 42 39 51 60 79 137 179 177 173 175 182 180 180 182 179 179 179 180 176 178 172
320 337 343 359 353 10 80 56 25 62 65 71 71 65 63 61 60 60 58 53 49 48 46 44 43 40 36 36 45 36 26 31 32 35 183 171 174 178 179 175 182 185 184 183 183 182 180 182 184